KD7MPG-3 Weather Reports


time (UTC)temp
F
wind
direction
speed
knots
gust
knots
rain 1hr
in
rain 24hr
in
rain mn
in
humidity
%
barometer
mb
20260904225414 64 109 0.9 2.6 0.02 0.38 0.20 85 1021.8
20260904224909 64 162 0.9 2.6 0.02 0.39 0.20 86 1021.8
20260904224409 63 176 0.9 1.7 0.03 0.39 0.20 86 1021.9
20260904223906 62 180 0.0 3.5 0.02 0.39 0.19 88 1021.8
20260904223405 62 179 0.9 3.5 0.02 0.39 0.19 87 1021.8
20260904222907 62 180 0.0 2.6 0.03 0.39 0.19 88 1021.9
20260904222405 61 180 0.0 2.6 0.03 0.39 0.19 88 1021.9
20260904221905 61 180 0.0 1.7 0.03 0.39 0.19 88 1021.8
20260904221405 61 181 0.0 1.7 0.03 0.39 0.19 88 1021.8
20260904220906 61 182 0.9 2.6 0.03 0.39 0.19 88 1021.8
20260904220359 60 182 0.9 2.6 0.03 0.39 0.19 88 1021.8
20260904215859 60 182 0.9 2.6 0.03 0.40 0.19 88 1021.9
20260904215359 60 184 0.9 2.6 0.02 0.39 0.18 88 1021.8
20260904214859 60 191 0.9 1.7 0.02 0.41 0.18 88 1021.8
20260904214359 60 191 0.0 0.9 0.01 0.42 0.18 88 1021.7
20260904213900 60 191 0.0 2.6 0.01 0.44 0.17 87 1021.8
20260904213357 60 192 0.0 2.6 0.01 0.45 0.17 87 1021.8
20260904212855 60 192 0.9 3.5 0.00 0.48 0.16 87 1021.8
20260904212353 60 192 1.7 5.2 0.00 0.50 0.16 86 1021.9
20260904211853 61 239 1.7 6.1 0.00 0.51 0.16 86 1021.8
20260904211353 62 205 2.6 6.1 0.00 0.51 0.16 84 1021.8
20260904210854 63 233 3.5 11.3 0.00 0.52 0.16 82 1021.7
20260904210351 65 192 3.5 11.3 0.00 0.52 0.16 79 1021.6
20260904205851 66 195 2.6 7.0 0.00 0.52 0.16 76 1021.6
20260904205352 66 189 1.7 7.0 0.00 0.52 0.16 75 1021.4
20260904204849 66 188 1.7 5.2 0.00 0.52 0.16 76 1021.3
20260904204347 67 171 1.7 5.2 0.01 0.52 0.16 74 1021.2
20260904203848 67 187 1.7 7.0 0.01 0.52 0.16 76 1021.4
20260904203342 67 154 1.7 7.0 0.01 0.52 0.16 74 1021.2
20260904202841 67 126 1.7 6.1 0.01 0.52 0.16 76 1021.2
20260904202341 67 135 1.7 6.1 0.01 0.52 0.16 77 1021.2
20260904201842 67 146 1.7 6.1 0.01 0.52 0.16 76 1021.2
20260904201341 66 149 1.7 5.2 0.01 0.52 0.16 81 1021.2
20260904200842 65 98 0.9 5.2 0.01 0.52 0.16 82 1021.2
20260904200335 65 158 1.7 7.8 0.01 0.52 0.16 82 1021.1
20260904195835 64 158 1.7 7.8 0.01 0.52 0.16 81 1021.2
20260904195335 64 135 0.9 4.3 0.01 0.52 0.16 83 1021.2
20260904194841 64 132 0.9 3.5 0.01 0.52 0.16 85 1021.4
20260904194335 64 109 1.7 3.5 0.00 0.51 0.15 83 1021.4
20260904193836 63 109 1.7 3.5 0.00 0.51 0.15 86 1021.5
20260904193332 63 109 0.9 3.5 0.00 0.51 0.15 87 1021.6
20260904192831 63 113 0.9 2.6 0.00 0.51 0.15 86 1021.6
20260904192331 62 98 0.9 2.6 0.00 0.51 0.15 86 1021.6
20260904191831 62 98 0.9 2.6 0.00 0.51 0.15 87 1021.6
20260904191329 62 103 0.0 2.6 0.00 0.51 0.15 87 1021.8
20260904190828 62 105 0.9 3.5 0.00 0.51 0.15 86 1021.7
20260904190326 62 105 0.9 3.5 0.00 0.51 0.15 86 1021.7
20260904185825 62 143 0.9 3.5 0.00 0.51 0.15 85 1021.8
20260904185323 62 126 1.7 8.7 0.00 0.51 0.15 85 1021.9
20260904184823 62 121 0.9 8.7 0.00 0.51 0.15 84 1021.9
20260904184323 62 99 0.0 2.6 0.00 0.51 0.15 86 1021.8
20260904183823 62 91 0.9 2.6 0.00 0.51 0.15 86 1021.6
20260904183322 62 94 0.9 3.5 0.00 0.51 0.15 86 1021.5
20260904182821 62 82 0.9 3.5 0.00 0.51 0.15 87 1021.4
20260904182322 62 70 0.9 2.6 0.00 0.51 0.15 86 1021.5
20260904181818 62 96 0.9 2.6 0.00 0.51 0.15 87 1021.4
20260904181317 61 69 0.9 2.6 0.00 0.51 0.15 86 1021.5
20260904180817 61 65 0.9 2.6 0.00 0.51 0.15 87 1021.4
20260904180311 61 49 0.0 2.6 0.00 0.51 0.15 87 1021.4
20260904175811 61 13 0.9 2.6 0.00 0.51 0.15 86 1021.3
20260904175311 60 12 0.9 2.6 0.00 0.51 0.15 87 1021.4
20260904174812 60 347 0.0 1.7 0.00 0.51 0.15 87 1021.4
20260904174310 60 69 0.0 1.7 0.00 0.51 0.15 87 1021.3
20260904173812 60 77 0.0 0.9 0.00 0.51 0.15 88 1021.3
20260904173309 60 76 0.0 0.9 0.00 0.52 0.15 88 1021.2
20260904172809 60 76 0.9 2.6 0.00 0.52 0.15 88 1021.0
20260904172308 59 77 0.9 2.6 0.00 0.52 0.15 88 1021.0
20260904171809 59 286 0.0 1.7 0.00 0.53 0.15 89 1020.9
20260904171308 59 286 0.0 1.7 0.00 0.54 0.15 88 1021.0
20260904170806 59 286 0.9 2.6 0.00 0.55 0.15 88 1020.9
20260904170308 59 286 0.9 2.6 0.00 0.56 0.15 89 1020.8
20260904165801 59 46 0.0 1.7 0.00 0.57 0.15 89 1020.8
20260904165305 58 47 0.0 2.6 0.00 0.57 0.15 90 1020.7
20260904164800 58 72 0.0 2.6 0.00 0.58 0.15 90 1020.9
20260904164301 58 73 0.0 2.6 0.00 0.58 0.15 90 1020.8
20260904163801 58 316 0.9 2.6 0.00 0.58 0.15 90 1020.6
20260904163301 58 316 0.9 2.6 0.00 0.58 0.15 91 1020.7
20260904162756 58 24 0.0 2.6 0.00 0.58 0.15 91 1020.6
20260904162254 57 23 0.0 2.6 0.00 0.58 0.15 90 1020.6
20260904161752 57 54 0.9 2.6 0.00 0.58 0.15 91 1020.6
20260904161253 57 65 0.9 2.6 0.00 0.58 0.15 92 1020.7
20260904160752 57 59 0.0 2.6 0.00 0.58 0.15 92 1020.7
20260904160254 57 60 0.0 2.6 0.00 0.58 0.15 92 1020.7
20260904155751 56 60 0.0 2.6 0.00 0.58 0.15 92 1020.7
20260904155252 56 61 0.0 2.6 0.01 0.58 0.15 92 1020.6
20260904154751 56 60 0.0 2.6 0.01 0.58 0.15 92 1020.5
20260904154250 56 59 0.0 2.6 0.02 0.58 0.15 92 1020.5
20260904153751 56 57 0.0 2.6 0.02 0.58 0.15 92 1020.5
20260904153252 56 58 0.0 2.6 0.02 0.58 0.15 92 1020.4
20260904152751 55 57 0.0 2.6 0.02 0.58 0.15 92 1020.4
20260904152250 55 344 0.0 1.7 0.02 0.58 0.15 92 1020.3
20260904151752 55 343 0.0 1.7 0.02 0.58 0.15 92 1020.4
20260904151250 55 344 0.0 1.7 0.02 0.58 0.15 92 1020.4
20260904150752 55 0 0.0 1.7 0.02 0.58 0.15 92 1020.3
20260904150250 55 344 0.0 1.7 0.02 0.58 0.15 92 1020.2
20260904145750 55 344 0.0 1.7 0.03 0.58 0.15 92 1020.2
20260904145250 55 344 0.0 0.9 0.02 0.57 0.14 92 1020.2
20260904144752 55 342 0.0 0.9 0.02 0.57 0.14 92 1020.3
20260904144247 55 342 0.0 1.7 0.01 0.56 0.13 92 1020.2
20260904143746 55 342 0.9 2.6 0.02 0.56 0.13 92 1020.1
20260904143247 55 15 0.9 2.6 0.02 0.56 0.13 92 1020.0
20260904142746 54 34 0.0 1.7 0.02 0.56 0.13 92 1019.9
20260904142247 54 38 0.0 0.9 0.02 0.56 0.13 92 1020.1
20260904141746 54 38 0.0 0.9 0.02 0.56 0.13 92 1020.0
20260904141243 54 38 0.0 0.9 0.02 0.56 0.13 92 1019.9
20260904140742 54 38 0.0 0.9 0.02 0.56 0.13 92 1019.8
20260904140243 54 38 0.0 2.6 0.02 0.56 0.13 92 1019.8
20260904135742 54 38 0.0 2.6 0.01 0.56 0.12 92 1019.6
20260904135242 54 40 0.0 0.9 0.01 0.57 0.12 92 1019.6
20260904134742 54 41 0.0 0.9 0.01 0.58 0.12 92 1019.6
20260904134238 54 40 0.0 0.9 0.01 0.60 0.12 92 1019.5
20260904133738 54 41 0.0 0.9 0.00 0.60 0.11 92 1019.5
20260904133238 54 41 0.0 1.7 0.00 0.60 0.11 92 1019.4
20260904132738 54 40 0.0 1.7 0.00 0.61 0.11 92 1019.3
20260904132238 54 40 0.0 0.9 0.00 0.63 0.11 92 1019.3
20260904131738 54 40 0.0 0.9 0.00 0.67 0.11 92 1019.3
20260904131233 54 41 0.0 0.9 0.00 0.69 0.11 92 1019.2
20260904130732 54 40 0.0 1.7 0.00 0.70 0.11 92 1019.2
20260904130233 54 40 0.0 1.7 0.00 0.70 0.11 92 1019.2
20260904125731 54 40 0.0 0.0 0.00 0.70 0.11 92 1019.2
20260904125231 54 40 0.0 0.0 0.00 0.71 0.11 92 1019.1
20260904124731 54 40 0.0 0.0 0.00 0.71 0.11 92 1019.2
20260904124225 54 40 0.0 0.9 0.00 0.71 0.11 92 1019.2
20260904123724 54 40 0.0 1.7 0.00 0.71 0.11 92 1019.1
20260904123220 54 40 0.0 1.7 0.00 0.71 0.11 92 1019.1
20260904122718 54 40 0.0 1.7 0.00 0.71 0.11 92 1019.2
20260904122218 54 40 0.0 0.9 0.00 0.71 0.11 92 1019.1
20260904121714 54 41 0.0 0.9 0.00 0.71 0.11 92 1019.0
20260904121213 54 40 0.0 0.9 0.00 0.71 0.11 92 1019.0
20260904120712 54 42 0.0 0.9 0.00 0.71 0.11 92 1019.1
20260904120212 54 41 0.0 0.9 0.00 0.71 0.11 92 1019.0
20260904115712 54 42 0.0 0.9 0.00 0.71 0.11 92 1019.0
20260904115213 54 41 0.0 0.9 0.00 0.71 0.11 92 1018.9
20260904114708 54 42 0.0 0.9 0.00 0.71 0.11 92 1018.8
20260904114209 54 42 0.0 0.9 0.00 0.71 0.11 92 1018.8
20260904113708 54 42 0.0 0.0 0.00 0.71 0.11 92 1018.7
20260904113208 54 41 0.0 0.0 0.00 0.71 0.11 92 1018.8
20260904112706 54 41 0.0 0.0 0.01 0.71 0.11 92 1018.7
20260904112206 54 42 0.0 0.0 0.01 0.71 0.11 92 1018.5
20260904111700 54 42 0.0 0.0 0.01 0.71 0.11 92 1018.5
20260904111158 54 42 0.0 0.9 0.01 0.71 0.11 92 1018.4
20260904110656 54 42 0.0 0.9 0.02 0.71 0.11 92 1018.5
20260904110155 54 42 0.0 0.9 0.02 0.71 0.11 92 1018.5
20260904105654 54 42 0.0 0.9 0.02 0.71 0.11 92 1018.4
20260904105149 54 42 0.0 2.6 0.03 0.71 0.11 92 1018.3
20260904104649 54 41 0.9 3.5 0.03 0.71 0.11 92 1018.3
20260904104148 54 42 0.9 3.5 0.03 0.71 0.11 92 1018.1
20260904103648 54 82 0.0 2.6 0.03 0.71 0.11 92 1018.2
20260904103148 54 104 0.0 0.9 0.03 0.71 0.11 92 1018.2
20260904102648 54 106 0.0 0.9 0.02 0.70 0.11 92 1018.2
20260904102146 54 105 0.0 0.0 0.02 0.70 0.10 92 1018.3
20260904101644 54 105 0.0 0.0 0.02 0.70 0.10 92 1018.3
20260904101145 54 105 0.0 0.9 0.02 0.70 0.10 92 1018.3
20260904100644 54 105 0.0 1.7 0.02 0.69 0.09 92 1018.2
20260904100142 54 105 0.0 1.7 0.02 0.69 0.09 92 1018.3
20260904095642 54 105 0.0 0.0 0.02 0.69 0.09 92 1018.3
20260904095136 54 105 0.0 0.9 0.02 0.68 0.08 92 1018.4
20260904094635 54 105 0.0 0.9 0.03 0.68 0.08 92 1018.3
20260904094136 54 106 0.0 2.6 0.04 0.68 0.08 92 1018.3
20260904093636 54 105 0.0 2.6 0.05 0.68 0.08 92 1018.2
20260904093135 54 75 0.0 1.7 0.05 0.68 0.08 92 1018.3
20260904092637 54 76 0.0 1.7 0.06 0.68 0.08 92 1018.2
20260904092135 54 76 0.0 1.7 0.06 0.68 0.08 92 1018.3
20260904091632 54 76 0.0 2.6 0.07 0.68 0.08 92 1018.3
20260904091133 54 76 0.9 2.6 0.07 0.68 0.08 92 1018.3
20260904090633 54 76 0.9 2.6 0.07 0.67 0.07 92 1018.4
20260904090130 54 101 0.9 2.6 0.07 0.67 0.07 92 1018.5
20260904085630 54 102 0.0 2.6 0.07 0.67 0.07 92 1018.4
20260904085124 54 98 0.0 2.6 0.06 0.66 0.06 92 1018.4
20260904084624 54 92 0.0 2.6 0.05 0.65 0.05 92 1018.4
20260904084123 54 93 0.0 1.7 0.04 0.64 0.04 92 1018.4
20260904083625 54 98 0.0 1.7 0.03 0.63 0.04 92 1018.4
20260904083124 54 99 0.0 1.7 0.03 0.63 0.03 92 1018.2
20260904082624 54 98 0.0 0.9 0.02 0.62 0.02 92 1018.3
20260904082120 54 98 0.0 0.9 0.02 0.62 0.02 92 1018.2
20260904081620 54 99 0.0 0.9 0.01 0.61 0.01 92 1018.3
20260904081118 54 98 0.0 0.9 0.01 0.61 0.01 92 1018.4
20260904080619 54 99 0.0 0.0 0.00 0.60 0.00 92 1018.3
20260904080118 54 99 0.0 0.0 0.00 0.60 0.00 92 1018.3
20260904075618 54 99 0.0 0.0 0.00 0.60 0.00 92 1018.3
20260904075116 54 98 0.0 0.0 0.00 0.60 0.00 92 1018.4
20260904074617 54 98 0.0 0.0 0.00 0.60 0.00 92 1018.3
20260904074115 54 99 0.0 0.0 0.00 0.60 0.00 92 1018.4
20260904073612 54 98 0.0 0.0 0.00 0.60 0.00 92 1018.2
20260904073110 54 99 0.0 0.0 0.00 0.60 0.00 92 1018.2
20260904072611 54 98 0.0 0.0 0.00 0.60 0.00 92 1018.2
20260904072108 54 99 0.0 0.0 0.00 0.60 0.00 92 1018.2
20260904071606 54 98 0.0 0.0 0.00 0.60 0.00 92 1018.3
20260904071107 54 98 0.0 0.0 0.00 0.60 0.00 92 1018.2
20260904070607 54 99 0.0 0.0 0.00 0.60 0.00 92 1018.2
20260904070104 54 100 0.0 0.0 0.00 0.60 0.00 92 1018.1
20260904065603 54 99 0.0 0.0 0.00 0.60 0.60 92 1018.1
20260904065104 54 100 0.0 0.0 0.00 0.60 0.60 92 1018.2
20260904064600 54 98 0.0 0.0 0.00 0.60 0.60 92 1018.1
20260904064101 54 99 0.0 0.0 0.00 0.60 0.60 92 1018.2
20260904063600 54 99 0.0 0.0 0.00 0.60 0.60 91 1018.0
20260904063058 54 98 0.0 0.0 0.00 0.60 0.60 91 1018.1
20260904062559 54 99 0.0 0.0 0.00 0.60 0.60 91 1018.0
20260904062056 54 99 0.0 0.0 0.00 0.60 0.60 91 1018.1
20260904061554 54 98 0.0 0.0 0.00 0.60 0.60 91 1018.1
20260904061055 54 98 0.0 0.9 0.00 0.60 0.60 91 1018.1
20260904060559 54 99 0.0 1.7 0.00 0.60 0.60 91 1018.1
20260904060052 54 98 0.0 1.7 0.00 0.60 0.60 91 1018.0
20260904055553 54 98 0.0 0.0 0.00 0.60 0.60 91 1018.0
20260904055045 54 98 0.0 0.0 0.00 0.60 0.60 91 1018.0
20260904054547 54 98 0.0 0.0 0.00 0.60 0.60 91 1018.0
20260904054045 54 99 0.0 0.0 0.00 0.60 0.60 91 1017.9
20260904053547 54 98 0.0 0.0 0.00 0.60 0.60 91 1018.0
20260904053046 54 98 0.0 0.0 0.00 0.60 0.60 91 1018.0
20260904052545 54 98 0.0 1.7 0.00 0.60 0.60 91 1018.0
20260904052043 54 99 0.0 1.7 0.00 0.60 0.60 91 1018.0
20260904051542 54 98 0.0 0.0 0.00 0.60 0.60 91 1018.1
20260904051040 54 97 0.0 0.0 0.00 0.60 0.60 91 1018.1
20260904050539 54 98 0.0 0.0 0.00 0.60 0.60 91 1018.2
20260904050040 54 98 0.0 0.9 0.00 0.60 0.60 91 1018.1
20260904045540 54 97 0.0 0.9 0.00 0.60 0.60 91 1018.2
20260904045034 54 98 0.0 0.9 0.00 0.60 0.60 91 1018.2
20260904044533 55 98 0.0 0.9 0.00 0.60 0.60 91 1018.2
20260904044030 55 98 0.0 0.0 0.00 0.60 0.60 91 1018.1
20260904043528 55 98 0.0 1.7 0.01 0.60 0.60 91 1018.2
20260904043028 55 98 0.0 2.6 0.01 0.60 0.60 91 1018.2
20260904042522 55 98 0.0 2.6 0.01 0.60 0.60 91 1018.2
20260904042022 55 98 0.0 1.7 0.01 0.60 0.60 91 1018.1
20260904041523 55 98 0.0 1.7 0.01 0.60 0.60 91 1018.1
20260904041021 55 98 0.0 1.7 0.01 0.60 0.60 91 1018.1
20260904040521 55 99 0.0 2.6 0.02 0.60 0.60 91 1018.2
20260904040021 55 98 0.9 3.5 0.02 0.60 0.60 91 1018.2
20260904035522 55 81 0.9 3.5 0.02 0.60 0.60 91 1018.3
20260904035016 55 101 0.9 2.6 0.02 0.60 0.60 91 1018.2
20260904034517 55 129 0.9 3.5 0.02 0.60 0.60 90 1018.1
20260904034016 55 134 0.9 3.5 0.03 0.60 0.60 91 1018.2
20260904033515 56 110 0.9 2.6 0.04 0.59 0.59 91 1018.1
20260904033015 56 117 0.9 2.6 0.06 0.59 0.59 91 1018.1
20260904032517 56 142 0.9 2.6 0.07 0.59 0.59 91 1018.0
20260904032010 56 136 0.9 6.1 0.07 0.59 0.59 91 1018.1
20260904031512 56 154 0.9 6.1 0.08 0.59 0.59 91 1018.1
20260904031009 56 181 1.7 6.1 0.08 0.59 0.59 91 1018.1
20260904030509 56 136 1.7 6.1 0.07 0.58 0.58 91 1018.1
20260904030008 56 149 1.7 4.3 0.07 0.58 0.58 91 1018.1
20260904025507 56 149 1.7 6.1 0.07 0.58 0.58 91 1018.1
20260904025008 56 159 2.6 6.1 0.07 0.58 0.58 91 1018.1
20260904024505 56 167 1.7 6.1 0.07 0.58 0.58 91 1018.2
20260904024006 56 182 0.9 6.1 0.06 0.57 0.57 91 1018.2
20260904023506 56 170 0.9 5.2 0.04 0.55 0.55 90 1018.0
20260904023002 56 159 0.9 4.3 0.02 0.53 0.54 90 1018.0
20260904022501 56 158 0.9 4.3 0.01 0.52 0.52 90 1018.0
20260904022003 56 165 0.9 4.3 0.01 0.52 0.52 90 1018.0
20260904021501 56 165 0.9 5.2 0.00 0.51 0.51 90 1018.0
20260904021001 56 161 0.9 5.2 0.00 0.51 0.51 89 1018.1
20260904020503 56 188 0.9 3.5 0.00 0.51 0.51 90 1018.1
20260904015957 56 159 0.9 2.6 0.01 0.51 0.51 89 1018.1
20260904015459 57 140 0.9 3.5 0.01 0.51 0.51 89 1018.1
20260904014957 57 122 0.0 3.5 0.01 0.51 0.51 89 1018.0
20260904014458 57 152 0.9 3.5 0.01 0.51 0.51 89 1018.0
20260904013957 57 153 0.9 3.5 0.01 0.51 0.51 89 1017.9
20260904013459 57 158 0.9 4.3 0.01 0.52 0.51 88 1018.0
20260904012955 57 163 1.7 4.3 0.01 0.52 0.51 88 1017.9
20260904012454 57 151 1.7 6.1 0.01 0.52 0.51 88 1017.9
20260904011953 58 143 1.7 6.1 0.01 0.52 0.51 88 1017.8
20260904011454 58 196 0.9 3.5 0.01 0.52 0.51 89 1017.9
20260904010954 58 158 1.7 7.0 0.02 0.52 0.51 88 1018.0
20260904010454 58 172 1.7 7.0 0.04 0.52 0.51 89 1017.9
20260904005951 58 128 1.7 6.1 0.04 0.51 0.50 89 1017.8
20260904005451 58 121 1.7 7.0 0.05 0.51 0.50 89 1017.7
20260904004952 59 146 1.7 7.0 0.06 0.51 0.50 89 1017.7
20260904004452 59 130 1.7 5.2 0.06 0.53 0.50 90 1017.8
20260904003951 59 135 1.7 6.1 0.06 0.53 0.50 90 1017.8
20260904003452 59 146 1.7 6.1 0.06 0.54 0.50 90 1017.8
20260904002948 59 126 0.9 4.3 0.06 0.54 0.50 90 1017.9
20260904002447 59 117 0.0 1.7 0.06 0.54 0.50 90 1017.9
20260904001947 59 117 0.0 1.7 0.06 0.54 0.50 89 1018.0
20260904001447 59 117 0.9 2.6 0.06 0.54 0.50 89 1017.9
20260904000948 59 117 0.9 2.6 0.05 0.53 0.49 89 1018.1
20260904000448 59 116 0.9 2.6 0.03 0.51 0.48 89 1018.2
20260903235948 59 117 0.9 3.5 0.03 0.50 0.46 88 1018.2
20260903235445 59 117 1.7 3.5 0.02 0.49 0.45 88 1018.1
20260903234943 59 103 0.9 3.5 0.02 0.48 0.44 88 1018.0
20260903234441 59 143 0.9 4.3 0.03 0.48 0.44 89 1017.9
20260903233941 59 144 0.9 4.3 0.03 0.48 0.44 89 1017.9
20260903233441 59 148 0.9 3.5 0.04 0.48 0.44 88 1018.0
20260903232942 59 159 0.9 2.6 0.04 0.48 0.44 89 1018.1
20260903232439 59 154 0.9 2.6 0.04 0.48 0.44 90 1018.1
20260903231937 58 149 0.9 2.6 0.04 0.48 0.44 90 1018.1
20260903231437 58 151 0.9 2.6 0.04 0.50 0.44 90 1018.1
20260903230937 57 157 0.0 2.6 0.04 0.56 0.44 90 1018.1
20260903230435 57 155 0.0 1.7 0.04 0.57 0.44 90 1018.1
20260903225935 57 155 0.0 2.6 0.04 0.57 0.43 90 1018.2